Regional Weather Roundup
Issued by NWS

Home | Current Version | Previous Version | Text Only | Print | Product List | Glossary Off
Versions: 1 2 3 4 5 6 7 8 9 10 11 12 13 14 15 16 17 18 19 20 21 22 23 24 25 26 27 28 29 30 31 32 33 34 35 36 37 38 39 40 41 42 43 44 45 46 47 48 49 50

000
ASUS43 KLOT 230704
RWRIL

ILLINOIS REGIONAL WEATHER ROUNDUP
NATIONAL WEATHER SERVICE CHICAGO/ROMEOVILLE IL
200 AM CDT SAT SEP 23 2017

NOTE: "FAIR" INDICATES FEW OR NO CLOUDS BELOW 12,000 FEET WITH NO
SIGNIFICANT WEATHER AND/OR OBSTRUCTIONS TO VISIBILITY.

* THESE STATIONS ARE NOT UNDER NWS QUALITY CONTROL. THEY ALSO MAY NOT
  REPORT WEATHER SUCH AS PRECIPITATION OR FOG.

ILZ001-002-007-009-015-016-024-230800-
NORTHWEST ILLINOIS

CITY           SKY/WX    TMP DP  RH WIND       PRES   REMARKS
MOLINE         CLEAR     74  64  71 S8        30.00S
STERLING*      CLEAR     69  65  86 SE5       30.02F
SAVANNA*       CLEAR     68  65  90 CALM      30.02R
$$

ILZ003-004-008-010-011-017-018-230800-
NORTH CENTRAL ILLINOIS

CITY           SKY/WX    TMP DP  RH WIND       PRES   REMARKS
ROCKFORD       CLEAR     70  64  81 S3        30.04S
FREEPORT*      PTCLDY    71  64  77 S7        30.04S
ROCHELLE*      CLEAR     66  64  91 S5        30.04F
DE KALB*       CLEAR     69  65  86 SE5       30.05F
PERU*          PTCLDY    72  64  75 CALM      30.04S
$$

ILZ005-006-012>014-019>023-230800-
NORTHEAST ILLINOIS

CITY           SKY/WX    TMP DP  RH WIND       PRES   REMARKS
CHICAGO-OHARE  CLEAR     75  66  73 S5        30.03F
CHICAGO-MIDWAY CLEAR     79  67  66 SW3       30.04S HX  81
AURORA         CLEAR     70  67  90 SE3       30.05S
LANSING*       CLEAR     71  68  92 CALM      30.04F
JOLIET*        CLEAR     71  68  90 CALM      30.05S
WAUKEGAN       CLEAR     73  68  84 SW5       30.03S
DUPAGE AIRPORT CLEAR     70  68  93 CALM      30.04S
KANKAKEE*      CLEAR     69  67  93 CALM      30.06S
WHEELING       CLEAR     73  69  87 CALM      30.04F
MORRIS*        CLEAR     72  66  81 CALM      30.03S
ROMEOVILLE*    PTCLDY    71  66  82 SE3       30.05S
NORTHERLY ISL    N/A     81  65  58 SW5         N/A  HX  83
$$

LMZ740>746-230800-
SOUTHERN LAKE MICHIGAN

STATION/POSITION SKY/WX   TEMP    WIND        PRES    VSBY  WAVE
                          AIR SEA DIR/SP/G                  HT/PER
                          (F)     (DEG/KT/KT) (MB)    (MI)  (FT/S)
SOUTHERN BUOY              74 70  160/  8/  8 1016.8          0
WILMETTE HARBOR            74 72  170/  6/  8   N/A           1
HARRISON CRIB              82     200/ 11/ 11   N/A
BURNHAM HARBOR             80                   N/A
CALUMET HARBOR             79     190/  4/  5 1016.7R
BURNS HARBOR               76     180/  5/  8 1017.9R
MICHIGAN CITY              78     140/  9/  9   N/A
MICHIGAN CITY 6N           73 72  180/  4/  4   N/A           0
ST. JOSEPH                 75 72  180/  2/  2 1017.3R         0
$$

ILZ025>027-034>036-040-047-049-050-058-095>099-230800-
WEST-CENTRAL ILLINOIS

CITY           SKY/WX    TMP DP  RH WIND       PRES   REMARKS
QUINCY         CLEAR     72  62  71 SE5       30.01R
GALESBURG*     CLEAR     71  64  79 SE3       30.03S
MACOMB*        CLEAR     64  62  93 SE3       30.04R
JACKSONVILLE*  CLEAR     69  63  80 SE3       30.02S
PITTSFIELD*    CLEAR     69  65  85 CALM      30.03S
$$

ILZ028>032-037-038-041>044-048-051>054-059>061-230800-
CENTRAL ILLINOIS

CITY           SKY/WX    TMP DP  RH WIND       PRES   REMARKS
PONTIAC        MOCLDY    71  70  96 SE3       30.05S
BLOOMINGTON    CLEAR     73  65  75 S8        30.06S
DECATUR        CLEAR     70  65  84 CALM      30.04S
PEORIA         CLEAR     76  65  68 CALM      30.03R
LACON*         CLEAR     69  66  90 CALM      30.02F
LINCOLN*       CLEAR     72  67  82 SE3       30.03S
SPRINGFIELD    CLEAR     73  66  78 SE5       30.03R
TAYLORVILLE    CLEAR     70  65  85 SE3       30.04S
$$

ILZ033-039-045-046-055>057-062-063-230800-
EAST-CENTRAL ILLINOIS

CITY           SKY/WX    TMP DP  RH WIND       PRES   REMARKS
CHAMPAIGN      CLEAR     70  65  84 E5        30.05
RANTOUL*       CLEAR     72  68  86 CALM      30.06R
MATTOON        CLEAR     71  67  87 S5        30.04S
PARIS*         PTCLDY    68  67  97 CALM      30.06S
$$

ILZ079-100>102-230800-
SOUTHWEST ILLINOIS

CITY           SKY/WX    TMP DP  RH WIND       PRES   REMARKS
ALTON          CLEAR     66  65  94 CALM      30.02F
BELLEVILLE     CLEAR     69  66  90 CALM      30.01R
CAHOKIA*       CLEAR     70  64  81 CALM      30.01S
SPARTA*        CLEAR     69  66  89 CALM      30.03S
$$

ILZ064>066-069>071-074>076-080>082-084>086-088>090-092>094-230800-
SOUTH-CENTRAL ILLINOIS

CITY           SKY/WX    TMP DP  RH WIND       PRES   REMARKS
CARBONDALE     FOG       66  66 100 CALM      30.02S VSB 1/2
CAIRO*         PTCLDY    67  67 100 CALM      30.02S FOG
EFFINGHAM*     CLEAR     69  67  94 CALM      30.05S
MARION         CLEAR     68  68 100 CALM      30.03S
MT. VERNON       N/A     65  64  97 CALM      30.03S
CENTRALIA*     CLEAR     69  66  92 CALM      30.03R
SALEM*         CLEAR     70  65  86 CALM      30.03S
METROPOLIS*    CLEAR     67  66  96 CALM      30.03R
$$

ILZ067-068-072-073-078-083-087-091-230800-
SOUTHEAST ILLINOIS

CITY           SKY/WX    TMP DP  RH WIND       PRES   REMARKS
LAWRENCEVILLE  CLEAR     70  68  93 CALM      30.04S
FLORA*         CLEAR     71  68  90 CALM      30.04S
FAIRFIELD*     CLEAR     67  64  91 CALM      30.03S
HARRISBURG*    CLEAR     66  65  97 CALM      30.03S
ROBINSON*      PTCLDY    66  66  99 CALM      30.05F
CARMI*         FOG       65  65 100 CALM      30.03S VSB 3/4
$$

ABBREVIATIONS USED IN REMARKS
   TC - TEMPERATURE IN CELSIUS
  WCI - WIND CHILL INDEX
   HX - HEAT INDEX
  VSB - VISIBILITY
$$





USA.gov is the U.S. government's official web portal to all federal, state and local government web resources and services.